Terminal Aerodrome Forecast
Issued by NWS

Home | Current Version | Previous Version | Text Only | Print | Product List | Glossary Off
Versions: 1 2 3 4 5 6 7 8 9 10 11 12

000
FTUS43 KFGF 231100
TAFBJI
TAF
KBJI 231120Z 2312/2412 21007KT 5SM BR BKN004
      TEMPO 2312/2314 2SM BR
     FM231500 22007KT P6SM SKC=

USA.gov is the U.S. government's official web portal to all federal, state and local government web resources and services.